This demonstration page uses our WeatherBlox Daily Observations layout. Learn more.

39.92423, -83.80882

Hourly Observations for June 24, 2019

Temp ( °F °C ) Dew Point ( °F °C ) Humidity (%) Winds ( mph kmh ) Pressure ( in mb ) Visibility ( mi km ) Precip ( " mm )
12:56 am 00:56 Partly Cloudy 69 20.6 68 20 96 96 WSW 7 11 29.84 1011 10 16.0934 0 0
1:56 am 01:56 Mostly Cloudy 69 20.6 68 20 96 96 S 7 11 29.81 1010 10 16.0934 0 0.0254
2:56 am 02:56 Mostly Clear 68 20 67 19.4 96 96 S 6 9 29.8 1009 10 16.0934 0 0
3:56 am 03:56 Clear 68 20 67 19.4 96 96 S 6 9 29.8 1009 10 16.0934 0 0
4:56 am 04:56 Clear 68 20 67 19.4 96 96 S 7 11 29.79 1009 10 16.0934 0 0
5:56 am 05:56 Clear 68 20 67 19.4 96 96 S 7 11 29.78 1008 10 16.0934 0 0
6:25 am 06:25 Partly Cloudy 66 19 66 19 100 100 S 7 11 29.78 1008 10 16.0934 0 0
6:56 am 06:56 Mostly Cloudy 68 20 68 20 100 100 SSW 6 9 29.79 1009 10 16.0934 0 0
7:10 am 07:10 Partly Cloudy 68 20 68 20 100 100 S 9 15 29.77 1008 10 16.0934 0 0
7:43 am 07:43 Cloudy 70 21 68 20 94 94 SSW 7 11 29.78 1008 10 16.0934 0 0
7:56 am 07:56 Cloudy 69 20.6 68 20 96 96 SSW 8 13 29.79 1009 10 16.0934 0 0
8:29 am 08:29 Partly Cloudy 70 21 68 20 94 94 SSW 12 19 29.78 1008 10 16.0934 0 0
8:37 am 08:37 Mostly Cloudy 70 21 68 20 94 94 SW 9 15 29.77 1008 10 16.0934 0 0
8:56 am 08:56 Mostly Cloudy 71 21.7 69 20.6 94 94 SSW 10 17 29.8 1009 10 16.0934 0 0
9:09 am 09:09 Mostly Cloudy 72 22 70 21 94 94 SSW 12 19 29.77 1008 10 16.0934 0 0
9:39 am 09:39 Mostly Cloudy 73 23 70 21 89 89 SSW 10 17 29.77 1008 10 16.0934 0 0
9:56 am 09:56 Mostly Cloudy 75 23.9 70 21.1 84 84 SW 13 20 29.79 1009 10 16.0934 0 0
10:56 am 10:56 Cloudy 74 23.3 69 20.6 85 85 SSW 8 13 29.79 1009 10 16.0934 0 0
11:56 am 11:56 Partly Cloudy 77 25 69 20.6 77 77 SSW 10 17 29.79 1009 10 16.0934 0 0
12:56 pm 12:56 Cloudy 76 24.4 69 20.6 79 79 SSW 10 17 29.77 1008 10 16.0934 0 0
1:56 pm 13:56 Cloudy 77 25 68 20 74 74 SW 15 24 29.77 1008 10 16.0934 0 0
2:56 pm 14:56 Cloudy 77 25 68 20 74 74 SW 9 15 29.75 1007 10 16.0934 0 0
3:56 pm 15:56 Cloudy with Light Rain 75 23.9 69 20.6 82 82 SW 6 9 29.71 1006 10 16.0934 0 0.0254
4:56 pm 16:56 Cloudy with Heavy Rain 69 20.6 68 20 96 96 SSW 7 11 29.71 1006 5 8.0467 0.12 3.048
5:06 pm 17:06 Cloudy with Rain 70 21 70 21 100 100 SW 8 13 29.7 1006 5 8.0467 0.08 2.032
5:37 pm 17:37 Cloudy with Light Rain 70 21 70 21 100 100 WSW 7 11 29.69 1005 8 12.87472 0.15 3.81
5:56 pm 17:56 Cloudy with Rain 70 21.1 70 21.1 100 100 W 8 13 29.69 1006 8 12.87472 0.16 4.064
6:04 pm 18:04 Cloudy with Rain 70 21 70 21 100 100 W 9 15 29.68 1005 10 16.0934 0.03 0.762
6:56 pm 18:56 Mostly Cloudy 71 21.7 70 21.1 96 96 W 13 20 29.72 1007 10 16.0934 0.05 1.27
7:11 pm 19:11 Mostly Cloudy 70 21 70 21 100 100 W 8 13 29.71 1006 10 16.0934 0 0
7:18 pm 19:18 Partly Cloudy 72 22 70 21 94 94 W 7 11 29.71 1006 10 16.0934 0 0
7:59 pm 19:59 Mostly Cloudy 72 22 70 21 94 94 WSW 13 20 29.73 1007 10 16.0934 0 0
8:14 pm 20:14 Partly Cloudy 72 22 70 21 94 94 WSW 9 15 29.74 1007 10 16.0934 0 0
8:56 pm 20:56 Sunny 70 21.1 68 20 93 93 SW 9 15 29.77 1008 10 16.0934 0 0
9:56 pm 21:56 Clear 68 20 68 20 100 100 SW 8 13 29.79 1009 10 16.0934 0 0
10:56 pm 22:56 Mostly Clear 68 20 68 20 100 100 SW 8 13 29.8 1009 10 16.0934 0 0
11:56 pm 23:56 Clear 67 19.4 67 19.4 100 100 SSW 9 15 29.8 1009 10 16.0934 0 0

Powered by AerisWeather